STARLINK-37666, 69046

Orbit data source: Space-Track

STARLINK-37666, 69046 is a payload satellite owned by SpaceX/Seattle (US) in SSO that was launched on Wed, 06 May 2026 UTC via an FALCON 9 launch vehicle from the Air Force Western Test Range (AFWTR). Payload-class satellites include a variety of spacecraft equipped with specific instruments for various scientific and technological missions. These include communications satellites like Starlink; space stations such as the ISS; scientific satellites like the Hubble; Earth observation satellites from companies like Planet Labs, Umbra, and HawkEye 360; GPS; miniature CubeSats for education and research; and military/defense satellites.

Loading next visibility...
Identifier
69046, 2026-101X
Orbit
SSO
Country
Flag of USUS
Related business
Manufacturer
SpaceX/Seattle
Mission
Operational spacecraft
Bus & Motor
STARLINK V2MO, Unknown motor
Mass
575 kg wet, ~530 kg dry
Launch date (UTC)
2026-05-06 (1 month ago)
Launch vehicle
FALCON 9
Launch site
Air Force Western Test Range (AFWTR)
Object type
Payload
Rocket body
Debris
Shape & HBR
Unknown
Radar Cross Section
Large (>1 m²)

Expand to show TLE details & history
Last TLE update: 2 days ago

TLE from 2 days ago
0 STARLINK-37666
1 69046U 26101X   26155.25004630 -.02571124  00000-0 -54504-1 0  9997
2 69046  97.2846  10.3230 0002006 114.2976 208.5033 15.48642529  5877
Epoch: 2026-06-04T06:00Z
TLE epoch observation values (Epoch: 2026-06-04T06:00:04.000Z)
Latitude
-37.13711°
Longitude
33.1337°
Altitude
436.114 km
Speed
7.648 km/s
True Right ascension
01h 03m 23s
True Declination
-36° 57' 50"
Sunlit
Object was in daylight at epoch
Visualization orbit readout
Latitude
Unknown
Longitude
Unknown
Altitude
Unknown
Speed
Unknown
Apparent Right ascension
Unknown
Apparent Declination
Unknown
Sunlit
N/A
Visualization observer readout
Local Sidereal Time
02:38:48
Azimuth
Unknown
Elevation
Unknown
Doppler factor
Unknown
Orbital elements
Apogee altitude
418.982 km
Perigee altitude
416.256 km
Semi-major axis
6,795.756 km
Eccentricity
0.0002
Inclination
97.2846°
RAAN
10.323°
Arg. of periapsis
114.2976°
True anomaly
208.49233°
Mean anomaly
208.5033°
Eccentric anomaly
208.49782°
Mean motion
3.87424 °/min
Orbital period
92.92 mins
BSTAR
-0.054504
Loading maneuver chart data...
Computing Atmospheric mass density...
Loading historical data...
Loading historical data...
Loading historical data...
Loading historical data...
Loading historical data...
Loading historical data...
Loading historical data...

Documentation

Showing up to 5 results
|